User: anonymous   Login
Location: Unspecified
(0.0000°N, 0.0000°E)
Time: 18:46:35
(UTC+00:00)
Language:

Tiangong 2 - Orbit

View from above orbital plane
View from above orbital plane
View from above satellite
View from above satellite

Ground track
Ground track

The orbit data is extracted from the following two-line orbital elements,

1 41765U 16057A   17234.52053633  .00005598  00000-0  76359-4 0  9997
2 41765  42.7840 320.8901 0003555 321.6673 172.5704 15.58382007 53338
Epoch (UTC): 22 August 2017 12:29:34
Eccentricity: 0.0003555
inclination: 42.7840°
perigee height: 390 km
apogee height: 395 km
right ascension of ascending node: 320.8901°
argument of perigee: 321.6673°
revolutions per day: 15.58382007
mean anomaly at epoch: 172.5704°
orbit number at epoch: 5333

The dashed part of the orbit path shows where the satellite is in the earth's shadow,  

DLR